Regional Weather Roundup
Issued by NWS

Home | Current Version | Previous Version | Text Only | Print | Product List | Glossary Off
Versions: 1 2 3 4 5 6 7 8 9 10 11 12 13 14 15 16 17 18 19 20 21 22 23 24 25 26 27 28 29 30 31 32 33 34 35 36 37 38 39 40 41 42 43 44 45 46 47 48 49 50

000
ASUS43 KOAX 311302
RWRNE

WEATHER ROUNDUP FOR NEBRASKA
NATIONAL WEATHER SERVICE OMAHA NE
800 AM CDT TUE MAY 31 2016

NOTES: SATELLITE DATA IS BEING USED TO AUGMENT CLOUD COVER ABOVE
       12000 FEET.
       "FAIR" INDICATES FEW OR NO CLOUDS BELOW 12,000 FEET WITH NO
       SIGNIFICANT WEATHER AND/OR OBSTRUCTIONS TO VISIBILITY.

  * THESE STATIONS DO NOT REPORT WEATHER SUCH AS RAIN...SNOW OR FOG.

NEZ001>004-019>022-054>056-311400-
NEBRASKA PANHANDLE

CITY           SKY/WX    TMP DP  RH WIND       PRES   REMARKS
SCOTTSBLUFF    CLOUDY    50  42  74 NW9       30.12R
ALLIANCE       CLOUDY    50  44  80 W5        30.09R
CHADRON        MOSUNNY   51  43  74 W7        30.09R
SIDNEY         CLOUDY    49  45  86 W9        30.13R
$$

NEZ057>060-069>072-079>082-311400-
SOUTHWEST NEBRASKA

CITY           SKY/WX    TMP DP  RH WIND       PRES   REMARKS
NORTH PLATTE   SUNNY     55  47  74 N7        30.07R
IMPERIAL       SUNNY     54  46  74 NW10      30.10R
LEXINGTON      CLOUDY    56  50  81 N7        30.04R
MCCOOK         MOSUNNY   55  50  83 NW3       30.07R
$$

NEZ005>010-023>029-035>040-094-311400-
NORTH CENTRAL NEBRASKA

CITY           SKY/WX    TMP DP  RH WIND       PRES   REMARKS
VALENTINE      CLOUDY    55  43  63 W8        30.02S
AINSWORTH      SUNNY     54  45  72 NW14      30.02R
BROKEN BOW     SUNNY     56  49  77 N9        30.03R
ORD            CLOUDY    57  48  72 NW7       29.99R
$$

NEZ041-046>049-061>064-073>077-083>087-311400-
SOUTH CENTRAL NEBRASKA

CITY           SKY/WX    TMP DP  RH WIND       PRES   REMARKS
GRAND ISLAND   CLOUDY    59  54  83 N13       29.99R
AURORA         CLOUDY    61  59  95 N14       29.99R
HASTINGS       CLOUDY    59  55  87 N14       29.99R
KEARNEY *      PTSUNNY   57  48  72 N10       30.02R
YORK           CLOUDY    63  59  88 NW7       29.98R
$$

NEZ011>018-030>034-042>045-311400-
NORTHEAST NEBRASKA

CITY           SKY/WX    TMP DP  RH WIND       PRES   REMARKS
NORFOLK        CLOUDY    58  53  84 NW8       29.95R
ALBION         CLOUDY    56  51  83 NW10      29.98R
BLAIR          CLOUDY    65  59  82 CALM      29.93R
FREMONT        CLOUDY    63  59  89 W9        29.94R
TEKAMAH        LGT RAIN  63  60  90 W5        29.91R
$$

NEZ050>053-065>068-078-088>093-311400-
SOUTHEAST NEBRASKA

CITY           SKY/WX    TMP DP  RH WIND       PRES   REMARKS
LINCOLN        LGT RAIN  64  59  83 W10       29.95R
OMAHA EPPLEY   CLOUDY    67  59  75 CALM      29.90S
BEATRICE       CLOUDY    64  60  87 NW8       29.94R
FALLS CITY     LGT RAIN  67  61  81 SW3       29.90F
NEBRASKA CITY  PTSUNNY   65  64  97 W8        29.89F
PLATTSMOUTH    CLOUDY    67  65  93 SW5       29.91S
$$

NEZ044-045-051>053-067-311400-
OMAHA AREA

CITY           SKY/WX    TMP DP  RH WIND       PRES   REMARKS
OMAHA EPPLEY   CLOUDY    67  59  75 CALM      29.90S
BLAIR          CLOUDY    65  59  82 CALM      29.93R
FREMONT        CLOUDY    63  59  89 W9        29.94R
PLATTSMOUTH    CLOUDY    67  65  93 SW5       29.91S
WAHOO          RAIN      64  60  87 W14       29.95R
$$




USA.gov is the U.S. government's official web portal to all federal, state and local government web resources and services.